Agashi, India

7:06 AM IST on July 28, 2017 (GMT +0530)
Chhatrapati Shivaji International | | Change Station

Elev 46 ft 19.12 °N, 72.85 °E | Updated 6 minutes ago

Rain
Rain
82 °F
Feels Like 92 °F
N
12
Wind Variable Wind from WSW

Today
High -- | Low -- °F
--% Chance of Precip.
Yesterday
High -- | Low -- °F
Precip. -- in
Pressure 29.71 in
Visibility 1.6 miles
Clouds Scattered Clouds 1800 ft
Scattered Clouds 2500 ft
Mostly Cloudy 10000 ft
Heat Index 92 °F
Dew Point 79 °F
Humidity 89%
Rainfall 0.00 in
Snow Depth Not available.
6:13 AM 7:16 PM
Waxing Crescent, 25% visible
METAR VABB 280130Z 25010KT 2500 HZ SCT018 SCT025 BKN100 28/26 Q1006 TEMPO 1500 SHRA
Pressure 29.71 in
Visibility 1.6 miles
Clouds Scattered Clouds 1800 ft
Scattered Clouds 2500 ft
Mostly Cloudy 10000 ft
Heat Index 92 °F
Dew Point 79 °F
Humidity 89%
Rainfall 0.00 in
Snow Depth Not available.
6:13 AM 7:16 PM
Waxing Crescent, 25% visible
METAR VABB 280130Z 25010KT 2500 HZ SCT018 SCT025 BKN100 28/26 Q1006 TEMPO 1500 SHRA

Get Severe Weather Alerts

Thanks for signing up!

Be on the lookout for a verification email in your inbox.

You'll start receiving the daily forecast at 6 AM.

×

10-Day Weather Forecast

No radar image for this location.
×

Almanac

Astronomy

Jul. 28, 2017 Rise Set
Actual Time
Civil Twilight
Nautical Twilight
Astronomical Twilight
Moon
Length of Visible Light
Length of Day
Tomorrow will be .
, % of the Moon is Illuminated

Today's Extremes

Country Highs Country Lows

Community

WunderPhotos

Category 6

Welcome to Category 6. This is the collective home for Weather Underground's featured writeups by Dr. Jeff Masters (right), Bob Henson (left), Chris Burt, and other regular contributors.

Nearby

Air Quality

  Air Quality AQ Index Pollutant
Not available.

Snow Depth

Station Depth Elevation

Earthquake Activity

City Distance Mag. Time & Date
Minimum magnitude displayed is 2.5.

Coastal Water Temperatures

Place Temperature

Stations

Nearby Weather Stations

Station Location Temp. Windchill Dew Point Humidity Wind Precip. Elev Updated Type